Location: Zagreb
(45.8000°N, 16.0000°E)
Time: 01:20:03
(UTC+01:00)

SR - Pass Details

Date: 16 August 2020
Orbit: 576 x 879 km, 66.7° (Epoch: 15 January)

Event Time Altitude Azimuth Distance (km) Brightness Sun altitude
Rises 22:32:34 0° 254° (WSW) 2,891 ? -22.1°
Reaches altitude 10° 22:35:27 10° 273° (W) 1,948 ? -22.4°
Maximum altitude 22:38:33 19° 319° (NW) 1,436 ? -22.8°
Drops below altitude 10° 22:41:35 10° 5° (N) 1,902 ? -23.1°
Sets 22:44:22 0° 24° (NNE) 2,797 ? -23.4°
